EHI
2 4 6 5 3 3 3 3 3 4 6 7 8 7 5 2 1 1 2 2 2 2 1 0 0 0 0 0 0 0 1 0 0 1 2 1 0 0 0 0 0 0 0
3 3 5 5 3 2 2 2 2 3 5 6 6 6 4 2 1 2 2 1 1 1 0 0 0 0 0 0 0 0 1 1 1 2 2 1 0 0 0 0 0 0 0
2 2 2 3 3 2 1 1 2 3 4 4 4 3 3 2 2 2 2 1 1 1 1 0 0 0 0 0 0 0 1 2 2 3 2 1 0 0 0 0 0 0 0
1 1 1 3 4 3 1 0 1 2 2 3 3 3 3 4 4 4 3 2 2 2 2 1 0 0 0 0 0 0 1 1 1 2 2 1 0 0 0 0 0 0 0
0 0 1 3 4 3 2 1 1 1 1 1 1 2 3 4 5 5 4 3 3 3 3 2 1 1 1 0 0 0 1 0 0 1 1 1 0 0 0 0 0 0 0
0 0 1 2 3 3 3 3 2 2 2 2 1 1 2 4 5 5 5 4 3 3 3 3 3 2 2 1 0 1 1 0 0 0 1 1 0 0 0 0 0 1 1
0 0 1 2 3 4 5 4 3 3 4 3 2 2 2 4 4 4 3 3 3 3 3 3 3 3 3 2 1 2 1 0 0 0 1 1 1 1 0 0 0 0 0
0 0 0 1 1 3 4 4 4 4 4 4 3 3 2 3 2 1 1 1 1 2 2 1 2 3 3 2 2 3 2 1 0 0 1 2 2 1 1 1 1 1 1
0 0 0 0 0 1 2 3 3 3 4 5 4 3 2 1 1 0 0 0 0 1 1 0 1 2 2 2 3 3 3 1 0 0 1 1 1 2 3 2 2 2 2
0 0 0 0 0 0 0 1 2 2 3 4 4 3 2 1 0 0 0 0 0 0 1 1 1 1 1 2 3 3 2 1 0 0 0 0 2 4 5 3 2 3 3
0 0 0 0 0 0 0 0 1 1 1 2 1 1 2 1 0 0 0 0 0 0 1 1 0 0 1 2 3 2 1 0 0 0 0 1 3 6 6 5 4 3 2
0 0 0 0 0 0 0 0 0 0 0 0 0 1 1 1 0 0 0 0 0 0 1 1 0 0 0 1 1 1 0 0 0 0 0 2 5 6 7 6 5 3 1
0 0 0 0 0 0 0 0 0 0 0 0 1 1 1 0 0 0 0 0 0 0 0 0 0 0 0 0 0 0 0 0 0 0 0 2 5 5 5 5 5 3 1
0 0 0 0 0 0 0 0 0 0 0 0 1 2 1 0 0 0 0 0 0 0 0 0 0 0 0 0 0 0 0 0 0 0 0 2 5 5 5 4 5 5 2
0 0 0 0 0 0 0 0 1 1 0 0 1 1 0 0 0 0 0 0 0 0 0 0 0 0 0 0 0 0 0 0 0 0 0 2 5 7 6 5 6 5 4
0 0 0 0 0 0 0 1 2 1 0 0 0 0 0 0 0 0 0 0 0 0 0 0 0 0 0 0 0 0 0 0 0 0 0 1 4 6 7 7 7 7 6
1 1 1 0 0 0 0 1 2 1 0 0 0 0 0 0 0 1 1 0 0 0 0 0 0 0 0 0 0 0 0 0 0 0 0 0 1 4 6 7 9 9 8
3 2 1 0 0 1 1 2 2 1 1 1 0 0 0 0 0 1 1 0 0 0 0 0 0 0 0 0 0 0 0 0 0 0 0 0 0 1 3 5 6 8 7
3 2 0 1 1 2 3 3 3 3 2 2 1 0 0 0 0 1 1 0 0 0 0 0 0 0 0 0 0 0 0 0 0 0 0 0 0 0 1 1 2 3 4
2 1 1 2 3 3 3 3 3 3 3 2 1 0 0 0 0 0 0 0 0 0 0 0 0 0 0 0 0 0 0 0 0 0 0 0 0 0 0 0 0 1 1
2 1 1 3 3 3 3 3 3 2 1 1 1 0 0 0 0 0 0 0 0 0 0 0 0 0 0 0 0 0 0 0 0 0 0 0 0 0 0 0 0 0 0
4 4 3 3 3 4 3 3 2 2 1 0 0 0 0 0 0 0 0 0 0 0 0 0 0 0 0 0 0 0 0 0 0 0 0 0 0 0 0 0 0 0 0
6 7 6 5 5 4 3 3 3 2 1 0 0 0 0 0 0 0 0 0 0 0 0 0 0 0 0 0 0 0 0 0 0 0 0 0 0 0 0 0 0 0 0
7 8 8 7 5 4 2 3 4 3 2 1 0 0 0 0 0 0 0 0 0 0 0 0 0 0 0 0 0 0 0 0 0 0 0 0 0 0 0 0 0 0 0
7 8 8 7 5 3 2 2 3 3 3 1 0 0 0 0 0 0 0 0 0 0 0 0 0 0 0 0 0 0 0 0 0 0 0 0 0 0 0 0 0 0 0
6 7 9 9 6 4 2 1 2 3 3 2 1 0 0 0 0 0 0 0 0 0 0 0 0 0 0 0 0 0 0 0 0 0 0 0 0 0 1 1 1 0 0
Wind_Speed
2 2 7 8 9 11 12 12 12 12 12 12 12 12 12 11 12 12 11 11 11 11 11 11 10 10 10 11 10 10 10 10 9 9 9 9 9 9 9 9 9 7 10
4 4 8 9 10 11 11 11 11 11 11 11 11 11 11 11 11 11 11 11 11 11 11 10 10 10 10 10 10 9 9 9 8 8 8 8 8 8 8 9 9 7 10
5 4 7 9 10 10 10 10 10 10 10 10 10 10 10 11 10 10 10 10 10 10 10 10 9 9 9 9 9 8 8 8 8 8 7 4 5 7 7 8 9 10 10
6 4 5 9 9 10 10 10 10 10 10 10 10 10 10 10 10 10 10 10 10 10 10 9 9 8 8 8 8 7 7 7 7 7 4 3 3 6 7 7 9 9 9
5 3 5 9 9 9 9 9 9 9 9 9 9 9 9 9 9 9 8 9 9 9 9 9 8 8 8 8 7 6 6 6 6 5 3 3 2 5 6 7 8 8 8
4 3 4 9 8 8 8 7 8 8 8 8 9 9 9 8 8 8 8 8 8 8 8 8 8 8 7 7 6 6 5 5 5 3 3 3 2 5 6 7 8 8 8
4 3 3 8 8 7 7 7 7 7 7 7 8 8 8 7 7 7 7 7 7 7 7 7 7 7 7 6 5 5 4 5 3 3 3 2 3 5 6 6 7 7 7
4 3 3 7 7 7 6 6 6 7 7 6 6 7 7 6 6 6 5 6 6 6 6 6 6 7 6 6 5 4 4 4 4 3 2 2 4 5 6 7 7 7 7
3 3 2 2 3 5 5 5 5 6 6 5 5 5 6 6 5 5 5 5 5 5 5 5 5 6 5 5 5 4 4 4 3 2 2 2 3 5 6 7 7 6 6
3 2 2 2 2 2 2 4 5 5 5 5 5 5 5 6 5 5 4 4 4 4 5 4 5 5 5 5 4 4 4 4 3 2 2 2 4 5 6 7 6 6 6
3 2 2 1 1 2 1 2 3 4 5 4 3 4 4 3 2 2 3 3 3 3 4 4 4 4 4 4 4 4 4 2 2 2 1 3 5 5 6 6 7 6 6
3 2 1 1 1 1 1 2 2 2 3 3 2 3 3 2 1 2 2 3 3 3 4 4 4 4 4 2 3 4 2 2 2 1 2 4 4 5 5 5 6 6 6
4 3 3 2 1 1 1 1 1 2 2 2 3 3 3 2 1 2 1 2 2 2 2 3 3 2 2 2 2 2 2 2 1 1 1 3 3 4 5 6 6 6 5
4 4 3 3 2 1 1 1 1 1 1 2 2 3 2 2 2 1 1 1 1 1 1 1 1 2 2 2 2 2 2 1 1 1 1 3 3 4 5 5 6 6 5
5 4 4 3 3 2 1 1 1 1 2 2 2 2 2 2 1 1 1 1 1 1 1 1 1 1 2 2 2 2 2 2 1 1 0 2 2 3 4 5 6 6 5
6 5 4 4 3 3 2 1 1 1 2 2 2 2 2 2 1 1 1 1 1 1 1 1 1 1 1 1 1 1 1 1 1 1 1 1 1 2 3 4 5 5 5
6 5 5 5 4 3 3 2 1 1 2 1 1 1 2 2 2 2 1 1 1 1 1 2 2 2 1 1 1 1 1 1 1 1 1 1 1 2 3 3 3 4 4
6 6 5 5 5 4 3 2 1 1 1 1 1 1 2 2 2 2 1 1 1 1 2 2 2 2 1 1 1 1 1 1 0 1 1 1 1 1 2 2 3 3 3
7 7 6 4 5 4 4 3 2 1 1 1 1 2 2 2 2 2 2 1 1 2 1 1 2 2 1 1 1 1 1 1 0 0 1 1 1 1 1 2 2 3 3
7 6 6 5 5 4 3 2 2 1 1 1 1 1 2 2 3 3 2 1 2 2 2 2 2 2 1 1 1 2 1 1 1 0 0 0 0 1 1 1 1 2 3
6 6 6 5 5 4 3 2 2 1 1 1 1 1 2 2 3 2 2 2 2 2 2 2 2 2 1 1 2 2 2 2 1 1 0 0 0 1 1 1 1 1 1
7 7 6 6 5 5 4 3 2 2 1 1 1 1 2 2 2 2 3 2 2 2 2 2 2 1 1 1 2 2 1 2 2 1 1 0 1 0 1 1 1 1 1
8 8 8 7 6 5 5 3 3 2 2 1 1 1 1 2 2 2 3 3 2 2 1 1 2 2 2 1 1 2 2 1 1 2 1 1 1 1 1 1 1 2 2
10 8 7 7 6 5 6 6 6 4 3 3 2 1 1 2 2 2 3 3 2 2 2 1 2 2 2 1 0 1 1 2 2 1 2 1 1 1 2 1 2 2 2
9 8 7 7 6 6 6 7 6 4 3 2 2 2 1 1 1 2 2 2 2 2 2 1 1 2 1 2 1 1 1 1 1 1 1 2 2 2 1 2 1 1 2
7 7 7 7 7 6 7 6 6 6 5 4 3 3 2 1 1 2 2 2 2 2 2 2 2 2 2 2 1 1 1 1 1 1 1 1 2 2 2 1 1 2 2
Wind_Direction
156 167 146 132 123 122 124 126 126 124 123 123 125 125 126 125 123 127 130 130 131 131 128 127 128 128 127 127 125 123 121 121 120 122 123 120 121 122 122 121 119 119 122
147 152 143 131 126 122 122 121 121 121 122 122 123 126 127 126 124 125 128 130 131 130 129 130 129 127 127 127 125 122 121 122 123 124 123 123 124 125 125 126 126 128 129
128 133 138 133 130 126 124 123 121 120 121 120 122 125 127 127 126 126 128 128 129 130 131 130 129 128 127 126 124 123 123 121 122 120 112 103 121 130 131 131 130 132 135
128 125 135 136 134 131 127 125 123 123 123 124 124 125 128 129 130 131 131 133 134 136 135 133 132 131 131 128 125 125 122 122 121 114 101 106 123 133 134 136 137 138 139
116 118 141 140 137 134 131 129 128 126 127 128 128 127 127 127 128 130 133 137 140 141 139 137 136 134 132 132 131 130 129 129 123 112 110 109 119 143 145 143 144 144 143
113 120 147 143 141 139 137 136 132 133 133 132 132 131 128 128 131 131 134 138 143 145 143 140 138 136 133 132 131 131 132 127 113 115 119 126 142 154 152 153 150 148 149
125 128 145 144 144 144 142 143 143 142 140 137 133 132 134 136 133 132 138 140 142 143 141 141 140 137 134 133 132 131 137 129 121 127 134 141 161 165 163 155 149 151 152
126 126 132 144 145 146 149 149 148 145 142 141 138 138 139 137 136 136 141 142 142 143 143 142 142 139 137 136 137 143 147 147 139 142 145 157 178 172 165 157 153 155 156
105 101 93 117 136 144 148 148 148 148 148 146 144 143 141 137 137 138 138 137 135 138 144 147 148 144 140 138 136 143 145 142 130 145 159 159 178 169 163 158 156 158 157
97 93 83 69 68 75 111 137 139 145 146 147 147 151 151 142 132 131 128 130 130 133 137 145 150 145 141 133 130 138 135 120 125 140 145 167 171 168 163 157 159 160 161
131 103 96 83 66 64 77 123 120 129 129 125 125 128 115 90 90 113 130 133 128 128 134 127 128 129 125 119 123 116 112 113 127 138 156 169 173 172 167 162 159 161 165
168 165 150 140 101 68 86 65 48 64 74 74 73 86 85 81 87 103 114 117 112 100 103 101 94 96 93 94 100 95 96 117 122 144 160 170 175 172 166 166 163 167 171
175 175 173 170 145 102 72 66 57 66 72 74 82 91 89 79 69 59 53 62 67 72 65 70 67 68 79 94 99 101 110 112 120 146 159 171 174 176 174 172 172 176 178
172 186 183 170 154 135 107 96 89 91 91 88 95 99 96 87 71 66 63 58 59 62 74 74 84 74 80 94 115 121 123 126 129 126 169 167 169 176 176 180 183 184 189
179 187 185 171 166 155 138 143 113 104 103 101 97 95 108 114 105 98 85 81 77 78 93 92 86 84 86 86 104 121 126 131 124 131 146 159 166 171 178 184 190 194 201
184 186 180 175 169 155 157 147 124 116 109 107 114 134 137 133 129 117 96 80 62 74 106 113 117 103 93 97 99 118 140 144 152 152 130 145 171 184 187 189 193 200 209
184 178 178 179 163 164 170 170 142 129 124 122 134 148 150 146 139 131 111 84 65 75 92 98 88 87 100 106 100 113 145 161 159 154 151 158 205 212 200 203 207 207 216
174 173 183 181 164 169 165 157 131 126 133 134 133 134 144 146 143 132 123 112 90 90 98 107 94 84 78 82 76 49 76 94 120 161 158 179 208 236 227 221 225 225 229
178 175 178 173 164 166 157 139 122 114 119 124 120 125 137 133 133 127 126 124 107 98 94 112 101 111 108 89 95 77 57 56 53 130 152 184 204 214 236 256 253 243 243
178 176 175 170 163 153 134 115 99 90 82 89 115 136 137 130 127 122 119 113 109 104 87 92 104 95 104 105 90 65 45 40 63 84 187 176 197 206 218 245 264 264 256
171 174 176 174 168 151 141 147 145 158 143 110 131 137 140 135 127 124 125 112 111 116 116 112 109 96 74 79 84 52 27 33 57 42 27 83 289 250 221 231 248 267 280
178 179 177 182 175 171 168 160 151 140 145 148 127 107 130 137 138 143 135 128 123 114 96 93 104 113 93 85 111 103 29 357 3 13 18 145 262 261 238 237 251 261 276
184 185 185 184 178 175 161 134 115 90 78 86 108 127 142 147 150 146 145 142 134 133 143 153 147 141 142 96 102 138 146 209 313 337 345 352 311 280 272 267 265 274 269
193 187 181 179 176 174 162 159 159 162 170 186 176 166 143 139 147 146 143 142 139 141 152 176 148 152 146 158 104 75 136 149 146 323 325 323 310 285 286 283 281 273 270
189 185 180 177 179 176 173 173 169 167 167 151 144 142 141 133 140 143 146 148 148 146 152 135 117 132 140 156 154 138 106 80 107 146 279 316 325 302 284 271 272 275 266
182 183 179 179 185 181 178 179 178 173 165 157 160 168 172 159 147 153 152 156 156 154 163 161 146 137 138 141 142 142 149 149 166 165 211 264 292 302 298 273 261 272 268